Temp: 10.4°C   Baro: 1011.8mb
  Wind: 8.1mph   Dir: SSW (199°)
  Rain: 3.4mm (1.0mm/hr)
  Solar: 30W/m2  Hum: 90%
 
Bath Spa Weather Historical Data
Daily Summary for July 11, 2019 Units:  Metric    English   Both
Next Day »
Daily Weekly Monthly Yearly Custom
  High: Low: Average:
Temperature: 22.8 °C 15.4 °C 18.3 °C
Dew Point: 15.9 °C 11.0 °C 13.9 °C
Humidity: 89% 61% 76%
Wind Speed: 20.9km/h 0.0km/h 5.8km/h
Wind Gust: 25.7km/h - -
Wind direction- - WNW
Pressure: 1015.1 hPa 1012.1 hPa -
Precipitation: 0.0 mm    
Historical Graphs
 
 
Tabular Data for July 11, 2019
Time Temperature Dew Point Pressure Wind direction Wind Speed Wind Gust Humidity Rainfall Rate (Hourly) solar
00:04 16.4 °C 11.1 °C 1015.1 hPa WNW 8.0 km/h 8.0 km/h 71% 0.0 mm 0.00 W/m2
00:09 16.3 °C 11.0 °C 1014.8 hPa Calm   4.8 km/h 71% 0.0 mm 0.00 W/m2
00:14 16.3 °C 11.0 °C 1015.1 hPa Calm   1.6 km/h 71% 0.0 mm 0.00 W/m2
00:19 16.4 °C 11.1 °C 1015.1 hPa Calm   1.6 km/h 71% 0.0 mm 0.00 W/m2
00:24 16.3 °C 11.0 °C 1015.1 hPa Calm   6.4 km/h 71% 0.0 mm 0.00 W/m2
00:29 16.4 °C 11.1 °C 1015.1 hPa Calm   1.6 km/h 71% 0.0 mm 0.00 W/m2
00:34 16.4 °C 11.3 °C 1014.8 hPa Calm   1.6 km/h 72% 0.0 mm 0.00 W/m2
00:39 16.3 °C 11.2 °C 1014.8 hPa Calm   4.8 km/h 72% 0.0 mm 0.00 W/m2
00:44 16.3 °C 11.2 °C 1014.8 hPa Calm     72% 0.0 mm 0.00 W/m2
00:49 16.3 °C 11.5 °C 1014.8 hPa Calm   4.8 km/h 73% 0.0 mm 0.00 W/m2
00:54 16.3 °C 11.5 °C 1014.8 hPa Calm   4.8 km/h 73% 0.0 mm 0.00 W/m2
00:59 16.4 °C 11.8 °C 1014.4 hPa WNW 1.4 km/h 4.8 km/h 74% 0.0 mm 0.00 W/m2
01:04 16.5 °C 11.8 °C 1014.8 hPa Calm   8.0 km/h 74% 0.0 mm 0.00 W/m2
01:09 16.4 °C 12.0 °C 1014.8 hPa Calm   3.2 km/h 75% 0.0 mm 0.00 W/m2
01:14 16.3 °C 12.1 °C 1014.8 hPa WNW 1.4 km/h 4.8 km/h 76% 0.0 mm 0.00 W/m2
01:19 16.2 °C 12.4 °C 1014.4 hPa Calm   4.8 km/h 78% 0.0 mm 0.00 W/m2
01:24 16.2 °C 12.6 °C 1014.4 hPa WNW 1.4 km/h 4.8 km/h 79% 0.0 mm 0.00 W/m2
01:29 16.2 °C 12.7 °C 1014.4 hPa Calm     80% 0.0 mm 0.00 W/m2
01:34 16.2 °C 12.9 °C 1014.4 hPa Calm     81% 0.0 mm 0.00 W/m2
01:39 16.2 °C 12.9 °C 1014.4 hPa Calm     81% 0.0 mm 0.00 W/m2
01:44 16.2 °C 13.1 °C 1014.4 hPa Calm     82% 0.0 mm 0.00 W/m2
01:49 16.2 °C 13.1 °C 1014.1 hPa Calm     82% 0.0 mm 0.00 W/m2
01:54 16.2 °C 13.3 °C 1014.1 hPa WNW 1.6 km/h 1.6 km/h 83% 0.0 mm 0.00 W/m2
01:59 16.1 °C 13.2 °C 1014.1 hPa Calm     83% 0.0 mm 0.00 W/m2
02:04 16.1 °C 13.4 °C 1014.1 hPa Calm     84% 0.0 mm 0.00 W/m2
02:09 16.0 °C 13.3 °C 1014.1 hPa Calm     84% 0.0 mm 0.00 W/m2
02:14 16.0 °C 13.3 °C 1014.1 hPa Calm     84% 0.0 mm 0.00 W/m2
02:19 15.9 °C 13.4 °C 1014.1 hPa Calm   3.2 km/h 85% 0.0 mm 0.00 W/m2
02:24 15.9 °C 13.4 °C 1014.1 hPa Calm   1.6 km/h 85% 0.0 mm 0.00 W/m2
02:29 15.9 °C 13.4 °C 1014.1 hPa Calm   3.2 km/h 85% 0.0 mm 0.00 W/m2
02:34 15.9 °C 13.6 °C 1013.8 hPa Calm   6.4 km/h 86% 0.0 mm 0.00 W/m2
02:39 15.9 °C 13.6 °C 1013.8 hPa WNW 1.4 km/h 4.8 km/h 86% 0.0 mm 0.00 W/m2
02:44 15.9 °C 13.6 °C 1013.8 hPa Calm   3.2 km/h 86% 0.0 mm 0.00 W/m2
02:49 15.8 °C 13.5 °C 1013.8 hPa Calm   4.8 km/h 86% 0.0 mm 0.00 W/m2
02:54 15.8 °C 13.5 °C 1013.8 hPa Calm   1.6 km/h 86% 0.0 mm 0.00 W/m2
02:59 15.7 °C 13.5 °C 1013.8 hPa Calm   1.6 km/h 87% 0.0 mm 0.00 W/m2
03:04 15.7 °C 13.5 °C 1013.4 hPa Calm     87% 0.0 mm 0.00 W/m2
03:09 15.7 °C 13.5 °C 1013.4 hPa Calm   3.2 km/h 87% 0.0 mm 0.00 W/m2
03:14 15.7 °C 13.5 °C 1013.4 hPa Calm   1.6 km/h 87% 0.0 mm 0.00 W/m2
03:19 15.7 °C 13.5 °C 1013.4 hPa Calm     87% 0.0 mm 0.00 W/m2
03:24 15.7 °C 13.7 °C 1013.4 hPa Calm     88% 0.0 mm 0.00 W/m2
03:29 15.6 °C 13.6 °C 1013.8 hPa Calm     88% 0.0 mm 0.00 W/m2
03:34 15.6 °C 13.6 °C 1013.4 hPa Calm     88% 0.0 mm 0.00 W/m2
03:39 15.5 °C 13.5 °C 1013.4 hPa Calm   1.6 km/h 88% 0.0 mm 0.00 W/m2
03:44 15.5 °C 13.5 °C 1013.4 hPa WNW 1.4 km/h 3.2 km/h 88% 0.0 mm 0.00 W/m2
03:49 15.5 °C 13.5 °C 1013.4 hPa WNW 1.4 km/h 4.8 km/h 88% 0.0 mm 0.00 W/m2
03:54 15.5 °C 13.5 °C 1013.4 hPa Calm   4.8 km/h 88% 0.0 mm 0.00 W/m2
03:59 15.5 °C 13.5 °C 1013.4 hPa WNW 1.4 km/h 3.2 km/h 88% 0.0 mm 0.00 W/m2
04:04 15.6 °C 13.6 °C 1013.4 hPa Calm     88% 0.0 mm 0.00 W/m2
04:09 15.5 °C 13.5 °C 1013.4 hPa WNW 6.4 km/h 6.4 km/h 88% 0.0 mm 0.00 W/m2
04:14 15.5 °C 13.5 °C 1013.1 hPa Calm   3.2 km/h 88% 0.0 mm 0.00 W/m2
04:19 15.5 °C 13.5 °C 1013.4 hPa WNW 3.2 km/h 6.4 km/h 88% 0.0 mm 0.00 W/m2
04:24 15.5 °C 13.5 °C 1013.1 hPa Calm   1.6 km/h 88% 0.0 mm 0.00 W/m2
04:29 15.6 °C 13.6 °C 1013.1 hPa Calm   3.2 km/h 88% 0.0 mm 0.00 W/m2
04:34 15.6 °C 13.8 °C 1013.1 hPa Calm   1.6 km/h 89% 0.0 mm 0.00 W/m2
04:39 15.5 °C 13.7 °C 1013.1 hPa WNW 1.4 km/h 3.2 km/h 89% 0.0 mm 0.00 W/m2
04:44 15.6 °C 13.8 °C 1013.1 hPa Calm     89% 0.0 mm 0.00 W/m2
04:49 15.5 °C 13.7 °C 1013.1 hPa Calm   3.2 km/h 89% 0.0 mm 0.00 W/m2
04:54 15.5 °C 13.7 °C 1013.1 hPa WNW 1.4 km/h 1.6 km/h 89% 0.0 mm 0.00 W/m2
04:59 15.5 °C 13.7 °C 1013.1 hPa Calm     89% 0.0 mm 0.00 W/m2
05:04 15.5 °C 13.7 °C 1013.1 hPa WNW 4.8 km/h 4.8 km/h 89% 0.0 mm 0.00 W/m2
05:09 15.5 °C 13.5 °C 1013.1 hPa WNW 1.4 km/h 1.6 km/h 88% 0.0 mm 0.00 W/m2
05:14 15.5 °C 13.5 °C 1013.4 hPa WNW 4.7 km/h 4.8 km/h 88% 0.0 mm 0.00 W/m2
05:19 15.5 °C 13.5 °C 1013.1 hPa Calm   4.8 km/h 88% 0.0 mm 0.00 W/m2
05:24 15.5 °C 13.5 °C 1013.1 hPa Calm   3.2 km/h 88% 0.0 mm 0.00 W/m2
05:29 15.5 °C 13.5 °C 1013.1 hPa Calm     88% 0.0 mm 5.00 W/m2
05:34 15.4 °C 13.4 °C 1013.1 hPa Calm     88% 0.0 mm 7.00 W/m2
05:39 15.4 °C 13.4 °C 1013.1 hPa Calm     88% 0.0 mm 9.00 W/m2
05:44 15.5 °C 13.5 °C 1013.1 hPa Calm   3.2 km/h 88% 0.0 mm 11.00 W/m2
05:49 15.4 °C 13.4 °C 1013.1 hPa Calm   3.2 km/h 88% 0.0 mm 14.00 W/m2
05:54 15.4 °C 13.4 °C 1013.1 hPa Calm     88% 0.0 mm 16.00 W/m2
05:59 15.4 °C 13.4 °C 1013.1 hPa Calm   3.2 km/h 88% 0.0 mm 16.00 W/m2
06:04 15.4 °C 13.4 °C 1013.1 hPa Calm     88% 0.0 mm 19.00 W/m2
06:09 15.5 °C 13.5 °C 1013.1 hPa Calm   4.8 km/h 88% 0.0 mm 25.00 W/m2
06:14 15.5 °C 13.5 °C 1013.1 hPa Calm   1.6 km/h 88% 0.0 mm 25.00 W/m2
06:19 15.5 °C 13.5 °C 1013.1 hPa WNW 1.4 km/h 3.2 km/h 88% 0.0 mm 28.00 W/m2
06:24 15.5 °C 13.5 °C 1013.1 hPa WNW 1.4 km/h 3.2 km/h 88% 0.0 mm 30.00 W/m2
06:29 15.6 °C 13.6 °C 1013.1 hPa WNW 3.2 km/h 4.8 km/h 88% 0.0 mm 37.00 W/m2
06:34 15.6 °C 13.6 °C 1013.1 hPa Calm   3.2 km/h 88% 0.0 mm 44.00 W/m2
06:39 15.7 °C 13.7 °C 1013.1 hPa Calm   3.2 km/h 88% 0.0 mm 39.00 W/m2
06:44 15.7 °C 13.7 °C 1012.8 hPa Calm   1.6 km/h 88% 0.0 mm 51.00 W/m2
06:49 15.8 °C 13.8 °C 1013.1 hPa WNW 3.2 km/h 4.8 km/h 88% 0.0 mm 49.00 W/m2
06:54 15.8 °C 13.8 °C 1013.1 hPa WNW 3.2 km/h 6.4 km/h 88% 0.0 mm 44.00 W/m2
06:59 15.8 °C 13.8 °C 1013.1 hPa WNW 1.4 km/h 6.4 km/h 88% 0.0 mm 28.00 W/m2
07:04 15.8 °C 13.8 °C 1013.1 hPa WNW 4.7 km/h 4.8 km/h 88% 0.0 mm 26.00 W/m2
07:09 15.8 °C 13.8 °C 1013.1 hPa WNW 1.4 km/h 3.2 km/h 88% 0.0 mm 37.00 W/m2
07:14 15.8 °C 13.8 °C 1013.1 hPa WNW 3.2 km/h 6.4 km/h 88% 0.0 mm 42.00 W/m2
07:19 15.8 °C 13.8 °C 1013.1 hPa WNW 3.2 km/h 4.8 km/h 88% 0.0 mm 39.00 W/m2
07:24 15.9 °C 13.9 °C 1013.1 hPa WNW 3.2 km/h 3.2 km/h 88% 0.0 mm 54.00 W/m2
07:29 16.0 °C 14.0 °C 1013.1 hPa Calm   4.8 km/h 88% 0.0 mm 88.00 W/m2
07:34 16.1 °C 14.1 °C 1013.1 hPa West 8.0 km/h 8.0 km/h 88% 0.0 mm 67.00 W/m2
07:39 16.2 °C 14.2 °C 1013.1 hPa West 1.4 km/h 6.4 km/h 88% 0.0 mm 84.00 W/m2
07:44 16.2 °C 14.2 °C 1013.1 hPa West 6.4 km/h 8.0 km/h 88% 0.0 mm 90.00 W/m2
07:49 16.2 °C 14.2 °C 1013.1 hPa Calm   3.2 km/h 88% 0.0 mm 74.00 W/m2
07:54 16.3 °C 14.1 °C 1013.1 hPa West 1.4 km/h 4.8 km/h 87% 0.0 mm 56.00 W/m2
07:59 16.3 °C 14.1 °C 1013.1 hPa Calm   4.8 km/h 87% 0.0 mm 60.00 W/m2
08:04 16.4 °C 14.2 °C 1013.1 hPa West 3.2 km/h 6.4 km/h 87% 0.0 mm 134.00 W/m2
08:09 16.4 °C 14.2 °C 1013.1 hPa West 4.7 km/h 6.4 km/h 87% 0.0 mm 148.00 W/m2
08:14 16.5 °C 14.3 °C 1013.1 hPa WSW 11.3 km/h 11.3 km/h 87% 0.0 mm 185.00 W/m2
08:19 16.6 °C 14.4 °C 1013.1 hPa NW 1.4 km/h 9.7 km/h 87% 0.0 mm 262.00 W/m2
08:24 16.8 °C 14.6 °C 1013.1 hPa NW 4.7 km/h 6.4 km/h 87% 0.0 mm 315.00 W/m2
08:29 17.2 °C 14.8 °C 1013.1 hPa NW 1.4 km/h 8.0 km/h 86% 0.0 mm 237.00 W/m2
08:34 17.3 °C 14.8 °C 1013.1 hPa Calm   4.8 km/h 85% 0.0 mm 132.00 W/m2
08:39 17.3 °C 14.6 °C 1013.1 hPa West 4.7 km/h 9.7 km/h 84% 0.0 mm 199.00 W/m2
08:44 17.4 °C 14.7 °C 1013.1 hPa West 3.2 km/h 11.3 km/h 84% 0.0 mm 216.00 W/m2
08:49 17.5 °C 14.6 °C 1013.1 hPa WSW 3.2 km/h 8.0 km/h 83% 0.0 mm 144.00 W/m2
08:54 17.5 °C 14.6 °C 1013.1 hPa WSW 3.2 km/h 6.4 km/h 83% 0.0 mm 97.00 W/m2
08:59 17.6 °C 14.7 °C 1013.1 hPa WSW 3.2 km/h 8.0 km/h 83% 0.0 mm 114.00 W/m2
09:04 17.6 °C 14.5 °C 1013.1 hPa West 9.7 km/h 11.3 km/h 82% 0.0 mm 70.00 W/m2
09:09 17.6 °C 14.3 °C 1013.1 hPa West 9.7 km/h 14.5 km/h 81% 0.0 mm 105.00 W/m2
09:14 17.6 °C 14.3 °C 1013.1 hPa WNW 4.7 km/h 9.7 km/h 81% 0.0 mm 135.00 W/m2
09:19 17.7 °C 14.4 °C 1013.1 hPa WSW 4.7 km/h 14.5 km/h 81% 0.0 mm 290.00 W/m2
09:24 17.9 °C 14.6 °C 1013.1 hPa West 4.7 km/h 11.3 km/h 81% 0.0 mm 353.00 W/m2
09:29 17.9 °C 14.4 °C 1013.1 hPa WSW 4.7 km/h 11.3 km/h 80% 0.0 mm 155.00 W/m2
09:34 17.9 °C 14.2 °C 1013.1 hPa Calm   9.7 km/h 79% 0.0 mm 121.00 W/m2
09:39 18.0 °C 14.5 °C 1013.1 hPa WSW 1.4 km/h 4.8 km/h 80% 0.0 mm 227.00 W/m2
09:44 18.2 °C 14.7 °C 1013.1 hPa West 7.9 km/h 12.9 km/h 80% 0.0 mm 309.00 W/m2
09:49 18.2 °C 14.5 °C 1013.1 hPa West 3.2 km/h 16.1 km/h 79% 0.0 mm 385.00 W/m2
09:54 18.4 °C 14.1 °C 1013.1 hPa West 7.9 km/h 12.9 km/h 76% 0.0 mm 320.00 W/m2
09:59 18.4 °C 13.9 °C 1012.8 hPa West 3.2 km/h 11.3 km/h 75% 0.0 mm 200.00 W/m2
10:04 18.5 °C 14.0 °C 1013.1 hPa WNW 3.2 km/h 12.9 km/h 75% 0.0 mm 130.00 W/m2
10:09 18.4 °C 13.9 °C 1013.1 hPa WNW 16.1 km/h 16.1 km/h 75% 0.0 mm 76.00 W/m2
10:14 18.4 °C 13.9 °C 1013.1 hPa West 11.1 km/h 11.3 km/h 75% 0.0 mm 69.00 W/m2
10:19 18.3 °C 14.0 °C 1013.1 hPa West 4.7 km/h 12.9 km/h 76% 0.0 mm 72.00 W/m2
10:24 18.0 °C 13.9 °C 1013.1 hPa WNW 14.3 km/h 20.9 km/h 77% 0.0 mm 104.00 W/m2
10:29 17.9 °C 13.8 °C 1013.4 hPa West 9.7 km/h 12.9 km/h 77% 0.0 mm 111.00 W/m2
10:34 17.9 °C 13.8 °C 1013.4 hPa West 4.7 km/h 12.9 km/h 77% 0.0 mm 146.00 W/m2
10:39 17.9 °C 13.6 °C 1013.4 hPa WNW 1.4 km/h 12.9 km/h 76% 0.0 mm 134.00 W/m2
10:44 17.9 °C 13.6 °C 1013.4 hPa WNW 14.5 km/h 14.5 km/h 76% 0.0 mm 141.00 W/m2
10:49 17.9 °C 13.6 °C 1013.4 hPa WNW 17.7 km/h 17.7 km/h 76% 0.0 mm 141.00 W/m2
10:54 17.9 °C 13.6 °C 1013.4 hPa West 6.4 km/h 11.3 km/h 76% 0.0 mm 185.00 W/m2
10:59 18.0 °C 13.7 °C 1013.4 hPa West 1.4 km/h 6.4 km/h 76% 0.0 mm 193.00 W/m2
11:04 18.3 °C 14.0 °C 1013.4 hPa WSW 16.1 km/h 16.1 km/h 76% 0.0 mm 188.00 W/m2
11:09 18.5 °C 14.0 °C 1013.1 hPa WNW 7.9 km/h 17.7 km/h 75% 0.0 mm 190.00 W/m2
11:14 18.4 °C 13.9 °C 1013.4 hPa West 6.4 km/h 19.3 km/h 75% 0.0 mm 192.00 W/m2
11:19 18.4 °C 13.9 °C 1013.1 hPa WSW 13.0 km/h 16.1 km/h 75% 0.0 mm 223.00 W/m2
11:24 18.5 °C 13.8 °C 1013.4 hPa Calm   11.3 km/h 74% 0.0 mm 255.00 W/m2
11:29 18.7 °C 14.0 °C 1013.4 hPa WNW 11.1 km/h 16.1 km/h 74% 0.0 mm 323.00 W/m2
11:34 18.8 °C 13.9 °C 1013.1 hPa NW 11.1 km/h 14.5 km/h 73% 0.0 mm 339.00 W/m2
11:39 19.0 °C 14.0 °C 1013.1 hPa WSW 3.2 km/h 12.9 km/h 73% 0.0 mm 274.00 W/m2
11:44 19.0 °C 13.8 °C 1013.1 hPa WNW 11.1 km/h 16.1 km/h 72% 0.0 mm 237.00 W/m2
11:49 19.0 °C 13.8 °C 1013.4 hPa WNW 4.7 km/h 16.1 km/h 72% 0.0 mm 216.00 W/m2
11:54 18.9 °C 13.7 °C 1013.4 hPa WNW 7.9 km/h 16.1 km/h 72% 0.0 mm 257.00 W/m2
11:59 19.0 °C 13.8 °C 1013.1 hPa West 6.4 km/h 12.9 km/h 72% 0.0 mm 350.00 W/m2
12:04 19.1 °C 13.7 °C 1013.1 hPa West 14.3 km/h 16.1 km/h 71% 0.0 mm 360.00 W/m2
12:09 19.2 °C 13.8 °C 1013.1 hPa NW 1.4 km/h 16.1 km/h 71% 0.0 mm 429.00 W/m2
12:14 19.4 °C 14.0 °C 1013.1 hPa West 6.4 km/h 11.3 km/h 71% 0.0 mm 552.00 W/m2
12:19 19.8 °C 13.9 °C 1013.1 hPa West 6.4 km/h 12.9 km/h 69% 0.0 mm 686.00 W/m2
12:24 19.9 °C 13.8 °C 1013.1 hPa NW 6.4 km/h 19.3 km/h 68% 0.0 mm 309.00 W/m2
12:29 19.9 °C 14.0 °C 1013.1 hPa WNW 11.1 km/h 14.5 km/h 69% 0.0 mm 195.00 W/m2
12:34 19.7 °C 13.9 °C 1013.1 hPa WNW 13.0 km/h 12.9 km/h 69% 0.0 mm 239.00 W/m2
12:39 19.6 °C 14.0 °C 1013.1 hPa West 4.7 km/h 12.9 km/h 70% 0.0 mm 285.00 W/m2
12:44 19.6 °C 14.0 °C 1013.1 hPa West 6.4 km/h 14.5 km/h 70% 0.0 mm 262.00 W/m2
12:49 19.7 °C 13.9 °C 1013.1 hPa West 4.7 km/h 17.7 km/h 69% 0.0 mm 234.00 W/m2
12:54 19.5 °C 13.9 °C 1013.1 hPa WNW 11.1 km/h 14.5 km/h 70% 0.0 mm 169.00 W/m2
12:59 19.4 °C 13.8 °C 1013.1 hPa West 1.4 km/h 11.3 km/h 70% 0.0 mm 174.00 W/m2
13:04 19.4 °C 13.8 °C 1013.1 hPa WNW 3.2 km/h 9.7 km/h 70% 0.0 mm 265.00 W/m2
13:09 19.4 °C 13.8 °C 1013.1 hPa West 6.4 km/h 14.5 km/h 70% 0.0 mm 397.00 W/m2
13:14 19.7 °C 13.9 °C 1013.1 hPa WSW 9.7 km/h 11.3 km/h 69% 0.0 mm 438.00 W/m2
13:19 19.9 °C 13.8 °C 1013.1 hPa WSW 3.2 km/h 16.1 km/h 68% 0.0 mm 606.00 W/m2
13:24 19.9 °C 13.8 °C 1013.1 hPa WSW 3.2 km/h 12.9 km/h 68% 0.0 mm 418.00 W/m2
13:29 20.2 °C 14.1 °C 1013.1 hPa West 7.9 km/h 9.7 km/h 68% 0.0 mm 258.00 W/m2
13:34 20.1 °C 14.0 °C 1013.1 hPa SW 6.4 km/h 16.1 km/h 68% 0.0 mm 246.00 W/m2
13:39 19.9 °C 13.4 °C 1013.1 hPa WSW 14.3 km/h 17.7 km/h 66% 0.0 mm 343.00 W/m2
13:44 20.0 °C 13.7 °C 1013.1 hPa WSW 9.7 km/h 12.9 km/h 67% 0.0 mm 294.00 W/m2
13:49 20.3 °C 13.7 °C 1013.1 hPa WSW 9.7 km/h 11.3 km/h 66% 0.0 mm 218.00 W/m2
13:54 20.3 °C 13.5 °C 1012.8 hPa WSW 6.4 km/h 17.7 km/h 65% 0.0 mm 278.00 W/m2
13:59 20.4 °C 13.6 °C 1013.1 hPa NW 11.1 km/h 12.9 km/h 65% 0.0 mm 316.00 W/m2
14:04 20.4 °C 13.6 °C 1012.8 hPa West 7.9 km/h 11.3 km/h 65% 0.0 mm 288.00 W/m2
14:09 20.3 °C 13.3 °C 1012.8 hPa West 14.3 km/h 20.9 km/h 64% 0.0 mm 301.00 W/m2
14:14 20.3 °C 13.3 °C 1012.8 hPa West 13.0 km/h 16.1 km/h 64% 0.0 mm 343.00 W/m2
14:19 20.5 °C 13.9 °C 1012.8 hPa WNW 11.1 km/h 16.1 km/h 66% 0.0 mm 371.00 W/m2
14:24 20.6 °C 14.5 °C 1012.8 hPa NW 7.9 km/h 16.1 km/h 68% 0.0 mm 448.00 W/m2
14:29 21.0 °C 14.6 °C 1012.8 hPa WNW 16.3 km/h 20.9 km/h 67% 0.0 mm 295.00 W/m2
14:34 20.8 °C 14.4 °C 1012.8 hPa West 9.7 km/h 20.9 km/h 67% 0.0 mm 352.00 W/m2
14:39 20.8 °C 14.7 °C 1012.8 hPa NW 14.3 km/h 17.7 km/h 68% 0.0 mm 355.00 W/m2
14:44 20.8 °C 14.4 °C 1012.8 hPa NNW 9.7 km/h 20.9 km/h 67% 0.0 mm 336.00 W/m2
14:49 20.7 °C 14.6 °C 1012.8 hPa NW 9.7 km/h 16.1 km/h 68% 0.0 mm 332.00 W/m2
14:54 20.8 °C 14.7 °C 1012.8 hPa WNW 11.1 km/h 17.7 km/h 68% 0.0 mm 534.00 W/m2
14:59 21.7 °C 15.1 °C 1012.8 hPa West 11.1 km/h 16.1 km/h 66% 0.0 mm 422.00 W/m2
15:04 21.8 °C 14.9 °C 1012.8 hPa WSW 19.3 km/h 19.3 km/h 65% 0.0 mm 441.00 W/m2
15:08 21.3 °C 14.7 °C 1012.8 hPa West 7.9 km/h 19.3 km/h 66% 0.0 mm 315.00 W/m2
15:14 21.2 °C 14.4 °C 1012.8 hPa West 11.1 km/h 17.7 km/h 65% 0.0 mm 348.00 W/m2
15:19 21.5 °C 14.6 °C 1012.8 hPa West 19.5 km/h 20.9 km/h 65% 0.0 mm 292.00 W/m2
15:24 22.3 °C 15.2 °C 1012.8 hPa West 11.1 km/h 16.1 km/h 64% 0.0 mm 979.00 W/m2
15:29 22.0 °C 14.9 °C 1012.8 hPa Calm   20.9 km/h 64% 0.0 mm 937.00 W/m2
15:34 22.4 °C 15.0 °C 1012.8 hPa WNW 4.7 km/h 20.9 km/h 63% 0.0 mm 206.00 W/m2
15:39 21.9 °C 14.8 °C 1012.8 hPa West 7.9 km/h 25.7 km/h 64% 0.0 mm 236.00 W/m2
15:44 22.2 °C 14.8 °C 1012.4 hPa West 14.3 km/h 25.7 km/h 63% 0.0 mm 875.00 W/m2
15:49 22.4 °C 15.0 °C 1012.4 hPa Calm   12.9 km/h 63% 0.0 mm 856.00 W/m2
15:54 22.2 °C 14.3 °C 1012.4 hPa WNW 19.5 km/h 24.1 km/h 61% 0.0 mm 214.00 W/m2
15:59 22.2 °C 14.6 °C 1012.4 hPa WNW 6.4 km/h 25.7 km/h 62% 0.0 mm 853.00 W/m2
16:04 22.3 °C 14.9 °C 1012.4 hPa WNW 7.9 km/h 20.9 km/h 63% 0.0 mm 199.00 W/m2
16:09 21.9 °C 14.5 °C 1012.4 hPa West 11.1 km/h 19.3 km/h 63% 0.0 mm 290.00 W/m2
16:14 21.9 °C 14.8 °C 1012.8 hPa West 14.3 km/h 22.5 km/h 64% 0.0 mm 410.00 W/m2
16:19 22.5 °C 15.1 °C 1012.8 hPa WNW 16.3 km/h 20.9 km/h 63% 0.0 mm 802.00 W/m2
16:24 22.3 °C 15.2 °C 1012.8 hPa West 7.9 km/h 19.3 km/h 64% 0.0 mm 791.00 W/m2
16:29 22.0 °C 14.9 °C 1012.4 hPa WNW 13.0 km/h 24.1 km/h 64% 0.0 mm 476.00 W/m2
16:34 21.9 °C 15.0 °C 1012.4 hPa NW 13.0 km/h 17.7 km/h 65% 0.0 mm 482.00 W/m2
16:39 22.3 °C 15.4 °C 1012.4 hPa NW 14.3 km/h 14.5 km/h 65% 0.0 mm 362.00 W/m2
16:44 22.3 °C 15.2 °C 1012.4 hPa WNW 7.9 km/h 16.1 km/h 64% 0.0 mm 332.00 W/m2
16:49 22.4 °C 15.3 °C 1012.4 hPa WNW 20.9 km/h 22.5 km/h 64% 0.0 mm 809.00 W/m2
16:54 22.8 °C 15.9 °C 1012.4 hPa WNW 7.9 km/h 16.1 km/h 65% 0.0 mm 796.00 W/m2
16:59 22.5 °C 15.3 °C 1012.4 hPa NW 11.1 km/h 24.1 km/h 64% 0.0 mm 267.00 W/m2
17:04 22.4 °C 15.3 °C 1012.4 hPa WNW 11.1 km/h 17.7 km/h 64% 0.0 mm 802.00 W/m2
17:09 22.7 °C 15.5 °C 1012.4 hPa NNW 17.7 km/h 17.7 km/h 64% 0.0 mm 171.00 W/m2
17:14 22.2 °C 15.1 °C 1012.4 hPa West 6.4 km/h 19.3 km/h 64% 0.0 mm 223.00 W/m2
17:19 22.2 °C 15.3 °C 1012.4 hPa West 14.3 km/h 22.5 km/h 65% 0.0 mm 714.00 W/m2
17:24 22.2 °C 15.3 °C 1012.4 hPa NW 7.9 km/h 17.7 km/h 65% 0.0 mm 529.00 W/m2
17:29 22.2 °C 15.3 °C 1012.4 hPa NW 9.7 km/h 19.3 km/h 65% 0.0 mm 287.00 W/m2
17:34 21.8 °C 14.9 °C 1012.4 hPa NNW 7.9 km/h 17.7 km/h 65% 0.0 mm 199.00 W/m2
17:39 21.7 °C 15.1 °C 1012.4 hPa WNW 4.7 km/h 11.3 km/h 66% 0.0 mm 246.00 W/m2
17:44 21.6 °C 15.0 °C 1012.4 hPa WNW 4.7 km/h 19.3 km/h 66% 0.0 mm 276.00 W/m2
17:49 21.5 °C 15.1 °C 1012.4 hPa West 6.4 km/h 11.3 km/h 67% 0.0 mm 251.00 W/m2
17:54 21.5 °C 15.1 °C 1012.4 hPa WSW 9.7 km/h 16.1 km/h 67% 0.0 mm 343.00 W/m2
17:59 21.6 °C 15.2 °C 1012.4 hPa West 20.9 km/h 20.9 km/h 67% 0.0 mm 237.00 W/m2
18:04 21.5 °C 15.1 °C 1012.4 hPa WNW 7.9 km/h 19.3 km/h 67% 0.0 mm 357.00 W/m2
18:09 21.2 °C 15.1 °C 1012.4 hPa NW 14.3 km/h 17.7 km/h 68% 0.0 mm 202.00 W/m2
18:14 21.3 °C 15.2 °C 1012.4 hPa WNW 4.7 km/h 17.7 km/h 68% 0.0 mm 304.00 W/m2
18:19 21.4 °C 15.2 °C 1012.4 hPa Calm   16.1 km/h 68% 0.0 mm 200.00 W/m2
18:24 21.2 °C 15.1 °C 1012.4 hPa West 1.4 km/h 6.4 km/h 68% 0.0 mm 214.00 W/m2
18:29 21.5 °C 14.9 °C 1012.4 hPa WNW 9.7 km/h 16.1 km/h 66% 0.0 mm 380.00 W/m2
18:34 21.5 °C 14.9 °C 1012.4 hPa WSW 7.9 km/h 16.1 km/h 66% 0.0 mm 269.00 W/m2
18:39 21.3 °C 14.7 °C 1012.4 hPa NW 6.4 km/h 20.9 km/h 66% 0.0 mm 283.00 W/m2
18:44 21.3 °C 14.9 °C 1012.4 hPa North 7.9 km/h 14.5 km/h 67% 0.0 mm 216.00 W/m2
18:49 21.3 °C 14.9 °C 1012.4 hPa WSW 13.0 km/h 17.7 km/h 67% 0.0 mm 297.00 W/m2
18:54 21.2 °C 14.8 °C 1012.4 hPa WNW 4.7 km/h 17.7 km/h 67% 0.0 mm 364.00 W/m2
18:59 21.4 °C 14.8 °C 1012.4 hPa West 9.7 km/h 14.5 km/h 66% 0.0 mm 330.00 W/m2
19:04 21.3 °C 14.7 °C 1012.4 hPa WNW 14.3 km/h 16.1 km/h 66% 0.0 mm 120.00 W/m2
19:09 20.8 °C 14.4 °C 1012.4 hPa WNW 13.0 km/h 17.7 km/h 67% 0.0 mm 58.00 W/m2
19:14 20.5 °C 14.4 °C 1012.4 hPa West 13.0 km/h 16.1 km/h 68% 0.0 mm 74.00 W/m2
19:19 20.3 °C 14.4 °C 1012.4 hPa West 9.7 km/h 17.7 km/h 69% 0.0 mm 125.00 W/m2
19:24 20.2 °C 14.3 °C 1012.1 hPa WNW 7.9 km/h 14.5 km/h 69% 0.0 mm 144.00 W/m2
19:29 20.3 °C 14.4 °C 1012.4 hPa WNW 7.9 km/h 11.3 km/h 69% 0.0 mm 288.00 W/m2
19:34 20.7 °C 14.8 °C 1012.1 hPa West 4.7 km/h 11.3 km/h 69% 0.0 mm 279.00 W/m2
19:39 21.0 °C 14.9 °C 1012.4 hPa WNW 11.1 km/h 17.7 km/h 68% 0.0 mm 220.00 W/m2
19:44 20.8 °C 14.7 °C 1012.1 hPa NW 7.9 km/h 19.3 km/h 68% 0.0 mm 172.00 W/m2
19:49 20.8 °C 14.7 °C 1012.4 hPa WNW 4.7 km/h 19.3 km/h 68% 0.0 mm 148.00 W/m2
19:54 20.6 °C 14.7 °C 1012.4 hPa WSW 13.0 km/h 17.7 km/h 69% 0.0 mm 128.00 W/m2
19:59 20.4 °C 14.3 °C 1012.4 hPa West 11.1 km/h 16.1 km/h 68% 0.0 mm 111.00 W/m2
20:04 20.4 °C 14.3 °C 1012.1 hPa NW 9.7 km/h 12.9 km/h 68% 0.0 mm 98.00 W/m2
20:09 20.4 °C 14.5 °C 1012.1 hPa West 4.7 km/h 14.5 km/h 69% 0.0 mm 86.00 W/m2
20:14 20.3 °C 14.4 °C 1012.1 hPa WNW 9.7 km/h 12.9 km/h 69% 0.0 mm 32.00 W/m2
20:19 19.9 °C 14.3 °C 1012.1 hPa West 3.2 km/h 8.0 km/h 70% 0.0 mm 30.00 W/m2
20:24 19.7 °C 14.1 °C 1012.4 hPa West 11.1 km/h 16.1 km/h 70% 0.0 mm 28.00 W/m2
20:29 19.4 °C 14.0 °C 1012.4 hPa NW 3.2 km/h 17.7 km/h 71% 0.0 mm 26.00 W/m2
20:34 19.3 °C 13.9 °C 1012.4 hPa West 3.2 km/h 11.3 km/h 71% 0.0 mm 26.00 W/m2
20:39 19.2 °C 14.0 °C 1012.4 hPa West 11.1 km/h 12.9 km/h 72% 0.0 mm 28.00 W/m2
20:44 19.1 °C 13.9 °C 1012.8 hPa West 6.4 km/h 14.5 km/h 72% 0.0 mm 33.00 W/m2
20:49 19.1 °C 13.9 °C 1012.8 hPa West 7.9 km/h 16.1 km/h 72% 0.0 mm 28.00 W/m2
20:54 19.1 °C 14.1 °C 1012.8 hPa West 13.0 km/h 14.5 km/h 73% 0.0 mm 19.00 W/m2
20:59 18.9 °C 14.0 °C 1012.8 hPa West 4.7 km/h 16.1 km/h 73% 0.0 mm 11.00 W/m2
21:04 18.8 °C 14.1 °C 1012.8 hPa WSW 6.4 km/h 9.7 km/h 74% 0.0 mm 12.00 W/m2
21:09 18.7 °C 14.0 °C 1012.8 hPa WSW 6.4 km/h 17.7 km/h 74% 0.0 mm 12.00 W/m2
21:14 18.6 °C 13.9 °C 1012.8 hPa WSW 6.4 km/h 16.1 km/h 74% 0.0 mm 11.00 W/m2
21:19 18.5 °C 13.8 °C 1012.8 hPa WNW 6.4 km/h 11.3 km/h 74% 0.0 mm 7.00 W/m2
21:24 18.4 °C 13.7 °C 1012.8 hPa West 7.9 km/h 16.1 km/h 74% 0.0 mm 5.00 W/m2
21:29 18.4 °C 13.9 °C 1012.8 hPa West 6.4 km/h 11.3 km/h 75% 0.0 mm 0.00 W/m2
21:34 18.3 °C 13.8 °C 1012.8 hPa WNW 4.7 km/h 11.3 km/h 75% 0.0 mm 0.00 W/m2
21:39 18.2 °C 13.7 °C 1012.8 hPa WNW 11.1 km/h 11.3 km/h 75% 0.0 mm 0.00 W/m2
21:44 18.1 °C 13.6 °C 1012.8 hPa West 9.7 km/h 11.3 km/h 75% 0.0 mm 0.00 W/m2
21:49 18.1 °C 13.6 °C 1012.8 hPa WNW 6.4 km/h 9.7 km/h 75% 0.0 mm 0.00 W/m2
21:54 18.0 °C 13.7 °C 1012.8 hPa West 11.3 km/h 11.3 km/h 76% 0.0 mm 0.00 W/m2
21:59 18.0 °C 13.7 °C 1012.8 hPa West 3.2 km/h 11.3 km/h 76% 0.0 mm 0.00 W/m2
22:04 17.9 °C 13.6 °C 1012.8 hPa West 6.4 km/h 9.7 km/h 76% 0.0 mm 0.00 W/m2
22:09 17.8 °C 13.7 °C 1013.1 hPa WNW 7.9 km/h 12.9 km/h 77% 0.0 mm 0.00 W/m2
22:14 17.7 °C 13.6 °C 1013.1 hPa WNW 6.4 km/h 9.7 km/h 77% 0.0 mm 0.00 W/m2
22:19 17.7 °C 13.6 °C 1013.1 hPa WNW 12.9 km/h 12.9 km/h 77% 0.0 mm 0.00 W/m2
22:24 17.7 °C 13.6 °C 1013.1 hPa WNW 7.9 km/h 12.9 km/h 77% 0.0 mm 0.00 W/m2
22:29 17.6 °C 13.7 °C 1013.1 hPa West 6.4 km/h 11.3 km/h 78% 0.0 mm 0.00 W/m2
22:34 17.5 °C 13.8 °C 1013.1 hPa West 6.4 km/h 9.7 km/h 79% 0.0 mm 0.00 W/m2
22:39 17.5 °C 13.8 °C 1013.1 hPa West 9.7 km/h 12.9 km/h 79% 0.0 mm 0.00 W/m2
22:44 17.5 °C 13.8 °C 1013.1 hPa West 6.4 km/h 14.5 km/h 79% 0.0 mm 0.00 W/m2
22:49 17.5 °C 13.8 °C 1013.1 hPa NW 6.4 km/h 14.5 km/h 79% 0.0 mm 0.00 W/m2
22:54 17.4 °C 13.9 °C 1013.1 hPa NW 9.7 km/h 14.5 km/h 80% 0.0 mm 0.00 W/m2
22:59 17.4 °C 13.9 °C 1013.1 hPa WNW 4.7 km/h 12.9 km/h 80% 0.0 mm 0.00 W/m2
23:04 17.4 °C 13.9 °C 1013.4 hPa WNW 4.7 km/h 12.9 km/h 80% 0.0 mm 0.00 W/m2
23:09 17.4 °C 13.9 °C 1013.4 hPa WNW 4.7 km/h 19.3 km/h 80% 0.0 mm 0.00 W/m2
23:14 17.4 °C 13.9 °C 1013.4 hPa WNW 7.9 km/h 19.3 km/h 80% 0.0 mm 0.00 W/m2
23:19 17.4 °C 13.9 °C 1013.4 hPa West 6.4 km/h 12.9 km/h 80% 0.0 mm 0.00 W/m2
23:24 17.4 °C 13.9 °C 1013.1 hPa West 6.4 km/h 16.1 km/h 80% 0.0 mm 0.00 W/m2
23:29 17.3 °C 14.0 °C 1013.4 hPa West 20.9 km/h 20.9 km/h 81% 0.0 mm 0.00 W/m2
23:34 17.2 °C 13.9 °C 1013.4 hPa NW 4.7 km/h 16.1 km/h 81% 0.0 mm 0.00 W/m2
23:39 17.2 °C 13.9 °C 1013.1 hPa WNW 4.7 km/h 9.7 km/h 81% 0.0 mm 0.00 W/m2
23:44 17.2 °C 13.9 °C 1013.4 hPa West 4.7 km/h 11.3 km/h 81% 0.0 mm 0.00 W/m2
23:49 17.1 °C 14.0 °C 1013.4 hPa West 9.7 km/h 11.3 km/h 82% 0.0 mm 0.00 W/m2
23:54 17.0 °C 13.9 °C 1013.1 hPa WNW 6.4 km/h 9.7 km/h 82% 0.0 mm 0.00 W/m2
23:59 16.9 °C 14.0 °C 1013.1 hPa West 1.4 km/h 12.9 km/h 83% 0.0 mm 0.00 W/m2